Change the Weather History Date:

Monday, November 12, 2012

  Actual Average Record
Temperature  
Mean Temperature 53 °F 45 °F  
Max Temperature 69 °F 52 °F 71 °F (1911)
Min Temperature 37 °F 38 °F 18 °F (1911)
Degree Days  
Heating Degree Days 12 20  
Month to date heating degree days 264 222  
Since 1 July heating degree days 734 725  
Cooling Degree Days 0 0  
Month to date cooling degree days 0 0  
Year to date cooling degree days 899 638  
Growing Degree Days 4 (Base 50)    
Moisture  
Dew Point 42 °F    
Average Humidity 62    
Maximum Humidity 93    
Minimum Humidity 31    
Precipitation  
Precipitation 0.56 in 0.12 in 1.31 in (1931)
Month to date precipitation 1.10 1.54  
Year to date precipitation 34.47 36.03  
Snow  
Snow 0.00 in 0.20 in - ()
Month to date snowfall T 2.0  
Since 1 July snowfall T 2.2  
Since 1 September snowfall T 2.2  
Snow Depth 0.00 in    
Sea Level Pressure  
Sea Level Pressure 30.07 in    
Wind  
Wind Speed 18 mph (SW)    
Max Wind Speed 30 mph    
Max Gust Speed 41 mph    
Visibility 8 miles    
Events Rain    
T = Trace of Precipitation, MM = Missing Value Source: NWS Daily Summary

Daily Weather History Graph

Daily Weather History Graph

Search for Another Location

Airport or City:

Trip Planner

Search our weather history database for the weather conditions in past years. The results will help you decide how hot, cold, wet, or windy it might be!

Date:

Astronomy

Nov. 12, 2012 Rise Set
Actual Time 7:07 AM EST 5:01 PM EST
Civil Twilight 6:37 AM EST 5:31 PM EST
Nautical Twilight 6:04 AM EST 6:05 PM EST
Astronomical Twilight 5:31 AM EST 6:38 PM EST
Moon 5:30 AM EST (11/12) 4:06 PM EST (11/12)
Length of Visible Light 10h 53m
Length of Day
9h 53m
Waning Crescent, 2% of the Moon is Illuminated
Nov 12
Waning Crescent
Nov 13
New
Nov 20
First Quarter
Nov 28
Full
Dec 6
Last Quarter

Hourly Weather History & Observations

Time (EST) Temp. Windchill Dew Point Humidity Pressure Visibility Wind Dir Wind Speed Gust Speed Precip Events Conditions
12:51 AM 64.0 °F - 34.0 °F 33% 30.06 in 10.0 mi South 21.9 mph 32.2 mph N/A   Clear
1:51 AM 64.9 °F - 35.1 °F 33% 30.07 in 10.0 mi South 25.3 mph 38.0 mph N/A   Clear
2:51 AM 64.4 °F - 37.4 °F 37% 30.09 in 10.0 mi South 19.6 mph 32.2 mph N/A   Clear
3:51 AM 62.6 °F - 39.2 °F 42% 30.10 in 10.0 mi South 18.4 mph 26.5 mph N/A   Clear
4:51 AM 63.0 °F - 41.0 °F 45% 30.09 in 10.0 mi South 17.3 mph 26.5 mph N/A   Clear
5:51 AM 60.8 °F - 42.8 °F 52% 30.08 in 10.0 mi South 17.3 mph 24.2 mph N/A   Clear
6:51 AM 62.6 °F - 42.8 °F 48% 30.07 in 10.0 mi South 20.7 mph 26.5 mph N/A   Clear
7:51 AM 62.1 °F - 45.0 °F 53% 30.06 in 10.0 mi South 20.7 mph 32.2 mph N/A   Clear
8:51 AM 64.9 °F - 46.0 °F 50% 30.04 in 10.0 mi South 23.0 mph 35.7 mph N/A   Clear
9:51 AM 66.9 °F - 46.9 °F 49% 30.04 in 10.0 mi South 20.7 mph 39.1 mph N/A   Overcast
10:51 AM 66.9 °F - 48.0 °F 51% 30.01 in 10.0 mi South 24.2 mph 31.1 mph N/A   Mostly Cloudy
11:51 AM 68.0 °F - 48.2 °F 49% 29.96 in 10.0 mi South 25.3 mph 35.7 mph N/A   Clear
12:51 PM 69.1 °F - 48.0 °F 47% 29.93 in 10.0 mi SSW 23.0 mph 34.5 mph N/A   Mostly Cloudy
1:51 PM 63.0 °F - 54.0 °F 72% 29.94 in 10.0 mi SSW 12.7 mph - 0.01 in Rain Light Rain
2:28 PM 57.2 °F - 51.8 °F 82% 29.96 in 7.0 mi West 21.9 mph 32.2 mph 0.00 in Rain Light Rain
2:43 PM 51.8 °F - 48.2 °F 88% 29.97 in 3.0 mi West 12.7 mph 21.9 mph 0.03 in Rain Rain
2:47 PM 51.8 °F - 48.2 °F 88% 29.98 in 3.0 mi WSW 10.4 mph 21.9 mph 0.03 in Rain Rain
2:51 PM 51.1 °F - 48.9 °F 92% 29.97 in 3.0 mi West 13.8 mph 23.0 mph 0.05 in Rain Rain
2:59 PM 51.8 °F - 48.2 °F 88% 29.97 in 1.8 mi West 12.7 mph 24.2 mph 0.03 in Rain Heavy Rain
3:15 PM 51.8 °F - 48.2 °F 88% 29.98 in 2.5 mi West 13.8 mph - 0.09 in Rain Rain
3:27 PM 50.0 °F - 48.2 °F 94% 29.99 in 3.0 mi WSW 10.4 mph 19.6 mph 0.11 in Rain Rain
3:51 PM 48.9 °F - 46.9 °F 93% 30.02 in 2.5 mi West 19.6 mph 28.8 mph 0.16 in Rain Rain
4:18 PM 48.2 °F - 46.4 °F 93% 30.02 in 4.0 mi West 15.0 mph 25.3 mph 0.07 in Rain Rain
4:43 PM 46.4 °F 39.2 °F 44.6 °F 93% 30.05 in 4.0 mi WSW 18.4 mph 26.5 mph 0.14 in Rain Heavy Rain
4:51 PM 46.0 °F 39.0 °F 44.1 °F 93% 30.05 in 4.0 mi WSW 17.3 mph 26.5 mph 0.16 in Rain Rain
5:51 PM 45.0 °F 37.4 °F 42.1 °F 90% 30.10 in 10.0 mi West 18.4 mph 28.8 mph 0.08 in Rain Light Rain
5:58 PM 44.6 °F 37.4 °F 42.8 °F 93% 30.09 in 8.0 mi WSW 16.1 mph 28.8 mph 0.01 in Rain Light Rain
6:26 PM 44.6 °F 37.4 °F 41.0 °F 87% 30.11 in 6.0 mi West 16.1 mph 26.5 mph N/A Rain Light Rain
6:38 PM 44.6 °F 36.9 °F 39.2 °F 81% 30.12 in 7.0 mi West 18.4 mph 33.4 mph 0.04 in Rain Rain
6:51 PM 44.1 °F 37.4 °F 41.0 °F 89% 30.14 in 6.0 mi WSW 13.8 mph 24.2 mph 0.06 in Rain Light Rain
7:28 PM 42.8 °F 35.1 °F 35.6 °F 76% 30.15 in 10.0 mi SW 16.1 mph 24.2 mph N/A Rain Light Rain
7:51 PM 41.0 °F 33.5 °F 36.0 °F 82% 30.17 in 8.0 mi SW 13.8 mph 21.9 mph 0.03 in Rain Light Rain
8:49 PM 39.2 °F 32.0 °F 35.6 °F 87% 30.18 in 10.0 mi SW 11.5 mph 20.7 mph 0.01 in Rain Light Rain
8:51 PM 39.9 °F 33.9 °F 35.1 °F 83% 30.19 in 10.0 mi WSW 9.2 mph 20.7 mph 0.01 in Rain Light Rain
9:06 PM 39.2 °F 31.2 °F 33.8 °F 81% 30.20 in 10.0 mi SW 13.8 mph 23.0 mph 0.00 in Rain Light Rain
9:51 PM 39.9 °F 31.8 °F 32.0 °F 73% 30.23 in 10.0 mi SW 15.0 mph - 0.00 in   Overcast
10:24 PM 39.2 °F 31.2 °F 30.2 °F 70% 30.24 in 10.0 mi SW 13.8 mph 24.2 mph N/A   Overcast
10:51 PM 39.0 °F 31.4 °F 30.0 °F 70% 30.26 in 10.0 mi SW 12.7 mph 23.0 mph N/A   Overcast
11:51 PM 37.9 °F 29.6 °F 28.0 °F 68% 30.29 in 10.0 mi SSW 13.8 mph 26.5 mph N/A   Overcast